This is the latest recevied weather packets stored in our database for station/object W2SBL-1. If no packets are shown the sender has not sent any weather packets the latest 10 day(s).
| Time | Temp. | Humidity | Pressure | Rain* | Wind** | Luminosity | Snow |
|---|---|---|---|---|---|---|---|
| 1787872360 | 26.11° C | 56% | 1014 hPa | - | - | - | - |
| 1787871459 | 26.11° C | 56% | 1014.1 hPa | - | - | - | - |
| 1787870559 | 26.11° C | 55% | 1014.1 hPa | - | - | - | - |
| 1787869659 | 26.11° C | 55% | 1014.3 hPa | - | - | - | - |
| 1787868765 | 26.11° C | 55% | 1014.3 hPa | - | - | - | - |
| 1787867859 | 25.56° C | 56% | 1014.5 hPa | - | - | - | - |
| 1787866959 | 25.56° C | 56% | 1014.3 hPa | - | - | - | - |
| 1787866059 | 25° C | 57% | 1014.3 hPa | - | - | - | - |
| 1787865159 | 25° C | 57% | 1014.6 hPa | - | - | - | - |
| 1787864259 | 24.44° C | 58% | 1014.8 hPa | - | - | - | - |
| 1787863359 | 25° C | 58% | 1014.5 hPa | - | - | - | - |
| 1787862459 | 25.56° C | 57% | 1014.6 hPa | - | - | - | - |
| 1787861559 | 25.56° C | 58% | 1015.4 hPa | - | - | - | - |
| 1787860659 | 25° C | 58% | 1015.7 hPa | - | - | - | - |
| 1787859758 | 25.56° C | 58% | 1016.1 hPa | - | - | - | - |
| 1787858858 | 25.56° C | 58% | 1016.3 hPa | - | - | - | - |
| 1787857958 | 26.11° C | 58% | 1016.8 hPa | - | - | - | - |
| 1787857058 | 26.67° C | 58% | 1017 hPa | - | - | - | - |
| 1787856158 | 27.22° C | 57% | 1016.8 hPa | - | - | - | - |
| 1787855258 | 28.33° C | 56% | 1016.6 hPa | - | - | - | - |
| 1787854358 | 28.33° C | 56% | 1016.4 hPa | - | - | - | - |
| 1787853458 | 28.89° C | 55% | 1016.7 hPa | - | - | - | - |
| 1787852558 | 30° C | 55% | 1016.5 hPa | - | - | - | - |
| 1787851658 | 30.56° C | 55% | 1016.2 hPa | - | - | - | - |
| 1787850758 | 31.67° C | 53% | 1016.5 hPa | - | - | - | - |
* Rain since midnight (hover to see other rain measurements)
** Current wind speed in m/s (hover to see current wind gust speed)